Home > Weather > Grande Prairie > Past weeks

Flag for Canada Past Weather in Grande Prairie, Alberta, Canada — Yesterday and Last 2 Weeks

Now
43 °F

Sprinkles. Mostly cloudy.


Feels Like: 40 °F
Forecast: 38 / 51 °F
Wind: 5 mph from Northwest

Location: Grande Prairie

Current Time: May 29, 2016 at 5:04:20 PM

Latest Report: May 29, 2016 at 4:00 PM


Visibility: 10 mi

Pressure: 30.10 "Hg (27.77 "Hg at 657m altitude)

Humidity: 81%

Dew Point: 37 °F

Location of Grande PrairieLocation

Past Weather in Grande Prairie — Graph

°F

Grande Prairie Temperature Yesterday

Maximum temperature yesterday: 54 °F (at 5:00 PM)
Minimum temperature yesterday: 41 °F (at 6:00 AM)
Average temperature yesterday: 46 °F

High & Low Weather Summary for the Past Weeks

 TemperatureHumidityPressure
High77 °F (May 16, 3:00 PM)100% (May 19, 11:00 PM)30.22 "Hg (May 19, 11:00 PM)
Low30 °F (May 21, 3:00 AM)16% (May 15, 6:00 PM)29.73 "Hg (May 24, 3:00 PM)
Average50 °F65%29.94 "Hg
* Reported May 14 3:00 PM — May 29 3:00 PM, Grande Prairie, Weather by CustomWeather, © 2016

Note: Actual official high and low records may vary slightly from our data, if they occured in-between our weather recording intervals... More about our weather records

Advertising

Grande Prairie Weather History for the Previous 24 Hours

Scroll right to see more
 ConditionsComfort  
Time TempWeatherWind HumidityBarometerVisibility
3:00 PM
Sun, May 29
41 °FSprinkles. Low clouds.8 mph81%30.09 "Hg10 mi
2:00 PM41 °FSprinkles. Mostly cloudy.10 mph87%30.07 "Hg10 mi
1:00 PM39 °FSprinkles. Low clouds.9 mph87%30.07 "Hg8 mi
12:00 PM39 °FSprinkles. Low clouds.10 mph87%30.05 "Hg8 mi
11:00 AM37 °FSprinkles. Low clouds.12 mph93%30.04 "Hg10 mi
10:00 AM36 °FSprinkles. Low clouds.6 mph93%30.04 "Hg5 mi
9:00 AM36 °FSprinkles. Scattered clouds.5 mph93%30.03 "Hg4 mi
8:00 AM37 °FLight rain. Overcast.7 mph87%30.00 "Hg8 mi
7:00 AM39 °FLight rain. Overcast.6 mph87%29.99 "Hg10 mi
6:00 AM41 °FScattered showers. Overcast.5 mph81%29.98 "Hg25 mi
5:00 AM41 °FOvercast.7 mph81%29.96 "Hg25 mi
4:00 AM41 °FOvercast.7 mph81%29.96 "Hg25 mi
3:00 AM41 °FPassing clouds.6 mph81%29.96 "Hg25 mi
2:00 AM43 °FPartly cloudy.8 mph81%29.96 "Hg25 mi
1:00 AM43 °FPartly cloudy.7 mph81%29.94 "Hg25 mi
12:00 AM45 °FPartly cloudy.8 mph76%29.94 "Hg25 mi
11:00 PM
Sat, May 28
46 °FBroken clouds.10 mph76%29.93 "Hg25 mi
10:00 PM46 °FSprinkles. Partly sunny.2 mph76%29.95 "Hg20 mi
9:00 PM50 °FSprinkles. Broken clouds.8 mph62%29.93 "Hg20 mi
8:00 PM50 °FBroken clouds.10 mph62%29.90 "Hg25 mi
7:00 PM52 °FPartly sunny.8 mph58%29.90 "Hg25 mi
6:00 PM52 °FPartly sunny.13 mph62%29.90 "Hg25 mi
5:00 PM54 °FBroken clouds.13 mph58%29.88 "Hg25 mi
Weather by CustomWeather, © 2016

See weather overviewHow to use our weather pages